Groton, CT

10:54 PM EDT on July 27, 2017 (GMT -0400)
Groton-New London

Weather History for KGON - November, 2010

Change the Weather History Date:

Saturday, November 6, 2010

  Actual Average Record
Temperature  
Mean Temperature 49 °F -  
Max Temperature 55 °F 54 °F 68 °F (1959)
Min Temperature 44 °F 37 °F 24 °F (2012)
Degree Days  
Heating Degree Days 16    
Moisture  
Dew Point 35 °F    
Average Humidity 63    
Maximum Humidity 80    
Minimum Humidity 45    
Precipitation  
Precipitation 0.00 in - - ()
Sea Level Pressure  
Sea Level Pressure 30.07 in    
Wind  
Wind Speed 6 mph (North)    
Max Wind Speed 13 mph    
Max Gust Speed 20 mph    
Visibility 10 miles    
Events      
Averages and records for this station are not official NWS values.
T = Trace of Precipitation, MM = Missing Value Source: NWS Daily Summary

Daily Weather History Graph

Daily Weather History Graph

Search for Another Location

Airport or City:

Trip Planner

Search our weather history database for the weather conditions in past years. The results will help you decide how hot, cold, wet, or windy it might be!

Date:

Astronomy

Nov. 06, 2010 Rise Set
Actual Time 7:25 AM EDT 5:37 PM EDT
Civil Twilight 6:56 AM EDT 6:06 PM EDT
Nautical Twilight 6:23 AM EDT 6:39 PM EDT
Astronomical Twilight 5:51 AM EDT 7:11 PM EDT
Moon 8:00 AM EDT (11/6) 5:41 PM EDT (11/6)
Length of Visible Light 11h 10m
Length of Day
10h 12m
New Moon, 0% of the Moon is Illuminated
Nov 6
New Moon
Nov 13
First Quarter
Nov 21
Full
Nov 28
Last Quarter
Dec 5
New

Hourly Weather History & Observations

Time (EDT) Temp. Windchill Dew Point Humidity Pressure Visibility Wind Dir Wind Speed Gust Speed Precip Events Conditions
12:56 AM 46.0 °F 44.8 °F 37.9 °F 73% 29.88 in 10.0 mi WNW 3.5 mph - N/A   Clear
1:56 AM 45.0 °F 42.6 °F 37.9 °F 76% 29.90 in 10.0 mi WNW 4.6 mph - N/A   Clear
2:56 AM 45.0 °F 43.5 °F 39.0 °F 80% 29.93 in 10.0 mi North 3.5 mph - N/A   Clear
3:56 AM 44.1 °F 42.5 °F 37.9 °F 79% 29.94 in 10.0 mi North 3.5 mph - N/A   Clear
4:56 AM 44.1 °F 40.1 °F 36.0 °F 73% 29.95 in 10.0 mi North 6.9 mph - N/A   Clear
5:56 AM 44.6 °F 40.7 °F 35.6 °F 71% 29.99 in 10.0 mi NNW 6.9 mph - N/A   Clear
6:56 AM 44.1 °F 39.5 °F 35.1 °F 71% 30.01 in 10.0 mi North 8.1 mph - N/A   Clear
7:56 AM 44.1 °F 39.0 °F 34.0 °F 68% 30.03 in 10.0 mi North 9.2 mph - N/A   Clear
8:56 AM 44.1 °F 39.5 °F 34.0 °F 68% 30.06 in 10.0 mi NNW 8.1 mph - N/A   Clear
9:56 AM 45.0 °F 39.3 °F 34.0 °F 65% 30.07 in 10.0 mi North 11.5 mph - N/A   Clear
10:56 AM 46.0 °F 41.4 °F 33.1 °F 61% 30.08 in 10.0 mi North 9.2 mph - N/A   Clear
11:56 AM 46.9 °F - 34.0 °F 61% 30.09 in 10.0 mi North 9.2 mph - N/A   Clear
12:56 PM 50.0 °F - 35.1 °F 57% 30.08 in 10.0 mi North 12.7 mph 19.6 mph N/A   Clear
1:56 PM 52.0 °F - 35.1 °F 53% 30.09 in 10.0 mi NE 4.6 mph - N/A   Clear
2:56 PM 54.0 °F - 33.1 °F 45% 30.07 in 10.0 mi Variable 4.6 mph - N/A   Clear
3:56 PM 52.0 °F - 33.1 °F 49% 30.10 in 10.0 mi NW 6.9 mph - N/A   Clear
4:56 PM 51.1 °F - 33.1 °F 50% 30.11 in 10.0 mi North 6.9 mph - N/A   Partly Cloudy
5:56 PM 50.0 °F - 33.1 °F 52% 30.14 in 10.0 mi NNE 3.5 mph - N/A   Mostly Cloudy
6:56 PM 50.0 °F - 33.1 °F 52% 30.17 in 10.0 mi North 3.5 mph - N/A   Mostly Cloudy
7:56 PM 48.9 °F - 34.0 °F 56% 30.19 in 10.0 mi North 4.6 mph - N/A   Mostly Cloudy
8:56 PM 46.9 °F - 35.1 °F 63% 30.19 in 10.0 mi NNW 3.5 mph - N/A   Mostly Cloudy
9:56 PM 46.4 °F 44.3 °F 35.6 °F 66% 30.20 in 10.0 mi North 4.6 mph - N/A   Overcast
10:56 PM 46.9 °F - 35.1 °F 63% 30.19 in 10.0 mi North 6.9 mph - N/A   Partly Cloudy
11:56 PM 46.0 °F 41.0 °F 34.0 °F 63% 30.20 in 10.0 mi North 10.4 mph - N/A   Scattered Clouds